Simultaneous Nadir Overpasses (SNOs) Predictions

Prediction of SNOs between LANDSAT-8 and METOP-B Satellite Orbit:

Table of predicted SNOs for the next 14.0 days since TLE Epoch: 11/22/2015
Index Date (LANDSAT-8) Time (LANDSAT-8) Lat,Lon (LANDSAT-8) SZA (LANDSAT-8 ) Date (METOP-B) Time (METOP-B) Lat,Lon (METOP-B) SZA (METOP-B ) Distance(km) Time Diff (sec)
1 11/23/2015 12:03:28 81.17, 39.72 103.83 11/23/2015 12:03:18 81.17, 39.80 103.84 1.50 10
2 11/23/2015 12:52:54 -81.18,-152.36 76.12 11/23/2015 12:53:57 -81.19,-152.18 76.07 3.23 63
3 11/26/2015 07:37:42 81.17, 106.30 104.39 11/26/2015 07:37:36 81.18, 106.41 104.40 1.94 6
4 11/26/2015 08:27:08 -81.19, -85.75 75.56 11/26/2015 08:28:16 -81.19, -85.91 75.55 2.68 68
5 11/29/2015 02:23:02 -80.32, -5.38 76.83 11/29/2015 02:21:48 -80.59, -6.34 76.70 35.14 74
6
